CW7841 Weather Reports


Display with metric or nautical units.
time (UTC)temp
F
wind
direction
speed
MPH
gust
MPH
rain 1hr
in
rain 24hr
in
rain mn
in
humidity
%
barometer
mb
20180624105727 76 298 0.0 0.0 0.01 0.04 0.01 92 1016.9
20180624104727 76 298 0.0 0.0 0.01 0.04 0.01 92 1016.9
20180624104227 76 298 0.0 0.0 0.01 0.04 0.01 92 1017.0
20180624103227 76 298 0.0 0.0 0.01 0.04 0.01 91 1016.7
20180624101727 77 298 0.0 0.0 0.01 0.03 0.01 92 1016.6
20180624101227 77 298 0.0 0.0 0.00 0.03 0.00 91 1016.6
20180624095227 77 298 0.0 0.0 0.00 0.03 0.00 91 1016.5
20180624094727 77 298 0.0 0.0 0.00 0.03 0.00 91 1016.5
20180624094227 77 298 0.0 0.0 0.00 0.03 0.00 91 1016.1
20180624092736 77 297 0.0 0.0 0.00 0.03 0.00 91 1016.3
20180624091227 77 297 0.0 0.0 0.00 0.03 0.00 91 1016.3
20180624090727 78 297 0.0 0.0 0.00 0.03 0.00 91 1016.1
20180624085727 78 298 0.0 0.0 0.00 0.03 0.00 91 1016.0
20180624085227 78 298 0.0 0.0 0.00 0.03 0.00 91 1015.9
20180624084727 78 298 0.0 0.0 0.00 0.03 0.00 91 1015.9
20180624081227 78 297 0.0 0.0 0.00 0.03 0.00 91 1016.3
20180624080727 78 297 0.0 0.0 0.00 0.03 0.00 91 1016.4
20180624075227 78 296 0.0 0.0 0.00 0.03 0.00 91 1016.1
20180624072727 78 297 0.0 0.0 0.00 0.03 0.00 91 1016.1
20180624072227 78 297 0.0 0.0 0.00 0.03 0.00 91 1016.1
20180624071727 78 297 0.0 0.0 0.00 0.03 0.00 90 1016.6
20180624071227 78 297 0.0 0.0 0.00 0.03 0.00 91 1016.5
20180624070727 78 294 0.0 0.0 0.00 0.03 0.00 90 1016.6
20180624070227 79 297 0.0 0.0 0.00 0.03 0.00 90 1016.6
20180624065727 79 297 0.0 0.0 0.00 0.03 0.00 90 1016.5
20180624062227 79 291 0.0 0.0 0.00 0.03 0.00 91 1016.9
20180624061727 79 295 0.0 0.0 0.00 0.03 0.00 90 1016.9
20180624061227 79 284 0.0 0.0 0.00 0.03 0.00 91 1017.2
20180624060727 79 295 0.0 0.0 0.00 0.03 0.00 91 1017.4
20180624060227 79 296 0.0 0.0 0.00 0.03 0.00 90 1017.4
20180624055727 79 252 0.0 0.0 0.00 0.03 0.00 94 1017.4
20180624053227 80 292 0.0 0.0 0.00 0.03 0.00 90 1017.6
20180624052727 80 290 0.0 0.0 0.00 0.03 0.00 90 1017.6
20180624052227 80 297 0.0 0.0 0.00 0.03 0.00 90 1017.4
20180624051227 80 286 0.0 0.0 0.00 0.03 0.00 90 1018.0
20180624045227 80 296 0.0 0.0 0.00 0.03 0.00 89 1018.0
20180624044727 80 288 0.0 0.0 0.00 0.03 0.00 89 1018.0
20180624044228 80 293 0.0 0.0 0.00 0.03 0.00 89 1018.2
20180624043727 80 294 0.0 0.0 0.00 0.03 0.00 89 1018.0
20180624043227 80 298 0.0 0.0 0.00 0.03 0.00 88 1018.0
20180624042227 81 291 0.0 0.0 0.00 0.03 0.00 89 1017.9
20180624041227 81 296 0.0 0.0 0.00 0.03 0.00 89 1018.2
20180624040227 81 298 0.0 0.0 0.00 0.03 0.00 88 1018.2
20180624034227 81 298 0.0 0.0 0.00 0.03 0.03 88 1018.1
20180624033727 81 297 0.0 0.0 0.00 0.03 0.03 88 1018.1
20180624033227 81 298 0.0 0.0 0.00 0.03 0.03 87 1018.1
20180624031727 81 267 0.0 0.0 0.00 0.03 0.03 89 1018.2
20180624031227 81 298 0.0 0.0 0.00 0.03 0.03 87 1018.0
20180624030727 82 297 0.0 0.0 0.00 0.03 0.03 88 1017.9
20180624030227 82 299 0.0 0.0 0.00 0.03 0.03 87 1017.8
20180624025727 82 298 0.0 0.0 0.00 0.03 0.03 87 1017.9
20180624025227 82 291 0.0 0.0 0.00 0.03 0.03 89 1017.6
20180624024727 82 298 0.0 0.0 0.00 0.03 0.03 87 1017.7
20180624024227 82 291 0.0 0.0 0.00 0.03 0.03 87 1017.4
20180624021727 82 283 0.0 0.0 0.00 0.03 0.03 86 1017.3
20180624021227 82 286 0.0 0.0 0.00 0.03 0.03 86 1017.0
20180624020727 82 282 0.0 0.0 0.00 0.03 0.03 87 1017.1
20180624020227 82 249 0.0 0.0 0.00 0.03 0.03 87 1016.9
20180624015727 82 298 0.0 0.0 0.00 0.03 0.03 85 1017.0
20180624015228 82 290 0.0 0.0 0.00 0.03 0.03 86 1017.1
20180624014747 83 294 0.0 0.0 0.00 0.03 0.03 85 1017.0
20180624014227 83 295 0.0 0.0 0.00 0.03 0.03 90 1016.7
20180624013727 83 251 0.0 0.0 0.00 0.03 0.03 89 1017.1
20180624012227 83 256 0.0 0.0 0.00 0.03 0.03 88 1017.0
20180624011228 83 263 0.0 0.0 0.00 0.03 0.03 87 1017.0
20180624010728 83 297 0.0 0.0 0.00 0.03 0.03 84 1017.2
20180624010227 84 298 0.0 0.0 0.00 0.03 0.03 83 1017.0
20180624005728 84 299 0.0 0.0 0.00 0.03 0.03 83 1017.0
20180624005228 84 299 0.0 0.0 0.00 0.03 0.03 83 1017.2
20180624004727 84 299 0.0 0.0 0.00 0.03 0.03 83 1017.1
20180624004228 84 299 0.0 0.0 0.00 0.03 0.03 82 1017.2
20180624003727 84 299 0.0 0.0 0.00 0.03 0.03 83 1017.4
20180624003228 84 299 0.0 0.0 0.00 0.03 0.03 82 1017.2
20180624002227 84 299 0.0 0.0 0.00 0.03 0.03 82 1017.1
20180624000728 85 297 0.0 0.0 0.00 0.03 0.03 81 1017.2
20180623235728 85 268 0.0 0.0 0.00 0.03 0.03 82 1017.3
20180623234228 85 280 0.0 0.0 0.00 0.03 0.03 80 1017.2
20180623233227 86 287 0.0 0.0 0.00 0.03 0.03 79 1017.6
20180623231728 86 286 0.0 0.0 0.00 0.03 0.03 79 1017.3
20180623231228 86 286 0.0 0.0 0.00 0.03 0.03 78 1017.6
20180623230727 86 286 0.0 0.0 0.00 0.03 0.03 78 1017.5
20180623230228 86 203 0.0 0.0 0.00 0.03 0.03 89 1017.1
20180623225728 86 282 0.0 0.0 0.00 0.03 0.03 79 1017.2
20180623224728 86 299 0.0 0.0 0.00 0.03 0.03 78 1016.9
20180623223228 87 296 0.0 0.0 0.00 0.03 0.03 78 1016.9
20180623222728 87 295 0.0 0.0 0.00 0.03 0.03 78 1016.9
20180623221728 87 221 0.0 0.0 0.00 0.03 0.03 77 1016.5
20180623220728 86 221 0.0 0.0 0.00 0.03 0.03 76 1016.5
20180623220228 86 221 0.0 0.0 0.00 0.03 0.03 77 1016.2
20180623214728 86 221 0.0 7.0 0.00 0.03 0.03 77 1016.3
20180623214228 86 221 0.0 7.0 0.00 0.03 0.03 77 1016.4
20180623213728 86 221 0.0 7.0 0.00 0.03 0.03 77 1016.4
20180623212728 86 220 0.0 7.0 0.00 0.03 0.03 79 1016.3
20180623212228 86 211 0.0 7.0 0.00 0.03 0.03 80 1016.4
20180623211228 85 190 0.0 7.0 0.00 0.03 0.03 80 1016.4
20180623210728 85 198 0.0 4.0 0.00 0.03 0.03 81 1016.7
20180623210228 85 202 0.0 0.0 0.00 0.03 0.03 80 1016.5
20180623204728 84 234 0.0 0.0 0.00 0.03 0.03 79 1017.0
20180623204228 84 234 0.0 0.0 0.00 0.03 0.03 79 1017.0
20180623203228 84 210 0.0 0.0 0.00 0.03 0.03 79 1016.8
20180623202728 84 210 0.0 0.0 0.00 0.03 0.03 79 1016.7
20180623202228 84 210 0.0 0.0 0.00 0.03 0.03 79 1016.4
20180623201728 84 210 0.0 0.0 0.00 0.03 0.03 79 1016.5
20180623200728 84 210 0.0 0.0 0.00 0.03 0.03 79 1016.5
20180623200228 84 210 0.0 0.0 0.00 0.03 0.03 78 1016.3
20180623194228 84 259 0.0 5.0 0.02 0.03 0.03 80 1017.1
20180623193728 84 260 0.0 5.0 0.02 0.03 0.03 79 1017.2
20180623193228 84 271 0.0 5.0 0.02 0.03 0.03 79 1017.1
20180623192228 84 264 0.0 0.0 0.02 0.03 0.03 80 1017.4
20180623191728 84 218 0.0 0.0 0.02 0.03 0.03 80 1017.6
20180623190728 84 219 0.0 0.0 0.02 0.03 0.03 82 1017.4
20180623190228 84 218 0.0 0.0 0.02 0.03 0.03 83 1017.2
20180623185728 84 218 0.0 7.0 0.03 0.03 0.03 84 1017.1
20180623185228 84 218 0.0 7.0 0.03 0.03 0.03 84 1017.4
20180623184228 84 255 0.0 7.0 0.03 0.03 0.03 85 1017.1
20180623183728 83 237 0.0 7.0 0.03 0.03 0.03 85 1017.2
20180623183228 83 193 0.0 7.0 0.03 0.03 0.03 85 1017.3
20180623182228 84 184 0.0 7.0 0.03 0.03 0.03 86 1016.7
20180623181728 84 286 0.0 7.0 0.03 0.03 0.03 85 1017.0
20180623181228 84 274 0.0 7.0 0.03 0.03 0.03 86 1017.3
20180623180228 85 309 0.0 7.0 0.02 0.01 0.02 83 1017.5
20180623172728 85 96 0.0 5.0 0.00 0.00 0.00 82 1017.5
20180623172228 85 96 0.0 5.0 0.00 0.00 0.00 81 1017.3
20180623171728 85 64 0.0 5.0 0.00 0.00 0.00 82 1017.6
20180623170728 85 55 0.0 5.0 0.00 0.00 0.00 80 1017.2
20180623170228 86 99 0.0 0.0 0.00 0.00 0.00 81 1017.2
20180623165728 86 91 0.0 8.0 0.00 0.00 0.00 81 1017.6
20180623165228 86 42 0.0 8.0 0.00 0.00 0.00 81 1017.2
20180623164728 86 43 0.0 8.0 0.00 0.00 0.00 81 1017.4
20180623164228 86 50 3.0 8.0 0.00 0.00 0.00 80 1017.5
20180623162228 88 35 0.0 8.0 0.00 0.00 0.00 78 1017.2
20180623161728 88 46 0.0 8.0 0.00 0.00 0.00 77 1017.5
20180623161228 88 38 0.0 8.0 0.00 0.00 0.00 76 1017.4
20180623160728 88 325 0.0 0.0 0.00 0.00 0.00 74 1017.5
20180623155728 88 324 0.0 4.0 0.00 0.00 0.00 74 1017.5
20180623155228 88 218 0.0 4.0 0.00 0.00 0.00 75 1017.6
20180623154728 88 221 0.0 4.0 0.00 0.00 0.00 76 1017.5
20180623154228 88 236 0.0 4.0 0.00 0.00 0.00 76 1017.6
20180623152728 88 291 0.0 4.0 0.00 0.00 0.00 77 1017.6
20180623152228 88 303 0.0 4.0 0.00 0.00 0.00 77 1017.5
20180623151728 87 310 0.0 4.0 0.00 0.00 0.00 77 1017.5
20180623151228 87 267 0.0 0.0 0.00 0.00 0.00 78 1017.5
20180623150728 87 319 0.0 0.0 0.00 0.00 0.00 79 1017.5
20180623150228 87 307 0.0 0.0 0.00 0.00 0.00 81 1017.6
20180623145728 86 253 0.0 5.0 0.00 0.00 0.00 80 1017.6
20180623143228 85 308 0.0 5.0 0.00 0.00 0.00 84 1017.5
20180623142728 85 237 0.0 5.0 0.00 0.00 0.00 85 1017.4
20180623142228 85 265 0.0 5.0 0.00 0.00 0.00 86 1017.4
20180623140228 84 260 0.0 0.0 0.00 0.00 0.00 90 1017.1
20180623135748 84 248 0.0 6.0 0.00 0.00 0.00 90 1017.3
20180623135228 83 272 0.0 6.0 0.00 0.00 0.00 91 1017.0
20180623134729 83 251 0.0 6.0 0.00 0.00 0.00 91 1016.8
20180623133728 83 260 0.0 6.0 0.00 0.00 0.00 91 1016.9
20180623132728 83 272 0.0 5.0 0.00 0.00 0.00 94 1016.8
20180623131728 82 296 0.0 5.0 0.00 0.00 0.00 94 1017.1
20180623131228 82 273 0.0 5.0 0.00 0.00 0.00 93 1017.1
20180623130728 82 287 5.0 5.0 0.00 0.00 0.00 94 1016.8
20180623130229 82 264 0.0 0.0 0.00 0.00 0.00 93 1017.2
20180623125228 81 274 0.0 3.0 0.00 0.00 0.00 93 1017.1
20180623124728 81 308 0.0 3.0 0.00 0.00 0.00 93 1016.9
20180623124229 81 264 0.0 3.0 0.00 0.00 0.00 94 1017.0
20180623123728 80 267 0.0 0.0 0.00 0.00 0.00 93 1017.3
20180623121229 80 302 0.0 0.0 0.00 0.00 0.00 93 1016.6
20180623115229 79 302 0.0 3.0 0.00 0.00 0.00 93 1016.5
20180623114728 79 276 0.0 3.0 0.00 0.00 0.00 94 1016.5
20180623114228 79 311 0.0 3.0 0.00 0.00 0.00 93 1016.4
20180623112229 79 261 0.0 0.0 0.00 0.00 0.00 92 1016.3
20180623111728 78 258 0.0 0.0 0.00 0.00 0.00 93 1016.0
20180623110729 78 262 0.0 0.0 0.00 0.00 0.00 92 1015.9
20180623110228 78 263 0.0 0.0 0.00 0.00 0.00 92 1015.8